Date String (YYYY-MM-DD hh:mm:ss) UTC,Instrument flags,Ambient pressure (hPa),Sample flow (lpm),Bypass flow (lpm),Sample temperature (°C),Ambient temperature (°C),ASC tube jacket temperature (°C),LED temperature (°C),Box temperature (°C),Sample RH (%),Span deviation,Mass concentration (μg/m³),Mass concentration (μg/m³),Mass concentration (μg/m³)
DateTimeUTC,F1_M11,P_M11,Q1_M11,Q2_M11,T1_M11,T2_M11,T3_M11,T4_M11,T5_M11,U1_M11,ZSPAN_M11,X0_M11,X2_M11,X1_M11
2023-01-30 06:00:00,,0826.6,5.00,0.00,22.3,20.6,00.0,31.3,23.9,03.7,0000.0,0006.75,0004.03,0003.64
2023-01-30 06:01:00,,0826.6,5.01,0.00,22.4,21.5,00.0,31.2,24.1,03.7,0000.0,0006.99,0004.06,0003.67
2023-01-30 06:02:00,,0826.7,5.01,0.00,22.5,22.4,00.0,31.2,24.4,03.7,0000.7,0007.06,0004.10,0003.71
2023-01-30 06:03:00,,0826.7,5.00,0.00,22.6,22.7,00.0,31.3,24.5,03.7,0001.7,0007.05,0004.14,0003.75
2023-01-30 06:04:00,,0826.6,4.98,0.00,22.6,22.1,00.0,31.3,24.3,03.7,0001.2,0007.19,0004.18,0003.78
2023-01-30 06:05:00,,0826.7,5.02,0.00,22.5,21.5,00.0,31.3,24.2,03.7,0001.0,0007.17,0004.19,0003.80
2023-01-30 06:06:00,,0826.6,4.99,0.00,22.5,21.0,00.0,31.3,24.0,03.7,0000.9,0007.17,0004.20,0003.81
2023-01-30 06:07:00,,0826.7,4.99,0.00,22.4,20.7,00.0,31.3,23.9,03.7,0000.5,0007.09,0004.19,0003.81
2023-01-30 06:08:00,,0826.6,5.01,0.00,22.3,20.6,00.0,31.3,23.8,03.7,0000.6,0007.02,0004.18,0003.81
2023-01-30 06:09:00,,0826.6,5.00,0.00,22.4,21.4,00.0,31.2,24.1,03.7,0000.1,0007.05,0004.19,0003.82
2023-01-30 06:10:00,,0826.6,5.00,0.00,22.5,22.4,00.0,31.2,24.3,03.7,0000.2,0007.10,0004.20,0003.84
2023-01-30 06:11:00,,0826.7,4.99,0.00,22.6,23.1,00.0,31.2,24.6,03.7,0000.2,0007.23,0004.23,0003.85
2023-01-30 06:12:00,,0826.7,4.99,0.00,22.6,22.7,00.0,31.3,24.5,03.7,0000.0,0007.26,0004.23,0003.85
2023-01-30 06:13:00,,0826.6,5.00,0.00,22.6,22.0,00.0,31.3,24.3,03.7,0000.1,0007.84,0004.24,0003.86
2023-01-30 06:14:00,,0826.5,4.99,0.00,22.6,21.4,00.0,31.3,24.2,03.7,-000.2,0007.84,0004.24,0003.86
2023-01-30 06:15:00,,0826.5,5.01,0.00,22.5,21.0,00.0,31.3,24.0,03.7,0000.1,0007.91,0004.22,0003.87
2023-01-30 06:16:00,,0826.6,5.00,0.00,22.4,20.7,00.0,31.3,23.9,03.7,0000.2,0008.03,0004.24,0003.88
2023-01-30 06:17:00,,0826.5,4.99,0.00,22.4,20.6,00.0,31.3,23.9,03.7,0000.0,0008.06,0004.25,0003.89
2023-01-30 06:18:00,,0826.5,5.00,0.00,22.4,21.4,00.0,31.3,24.1,03.7,-000.1,0008.08,0004.27,0003.89
2023-01-30 06:19:00,,0826.5,5.02,0.00,22.5,22.3,00.0,31.2,24.3,03.7,-000.5,0008.08,0004.27,0003.90
2023-01-30 06:20:00,,0826.5,5.00,0.00,22.6,23.1,00.0,31.3,24.6,03.7,-000.6,0008.07,0004.26,0003.90
2023-01-30 06:21:00,,0826.5,4.99,0.00,22.7,22.8,00.0,31.3,24.6,03.7,-000.5,0008.12,0004.28,0003.91
2023-01-30 06:22:00,,0826.5,5.01,0.00,22.7,22.1,00.0,31.3,24.4,03.7,-001.0,0008.08,0004.27,0003.91
2023-01-30 06:23:00,,0826.5,5.01,0.00,22.6,21.6,00.0,31.4,24.2,03.7,-000.5,0007.98,0004.27,0003.91
2023-01-30 06:24:00,,0826.5,5.00,0.00,22.5,21.2,00.0,31.4,24.1,03.7,0000.0,0007.38,0004.27,0003.91
2023-01-30 06:25:00,,0826.5,4.97,0.00,22.5,20.9,00.0,31.4,24.0,03.7,0000.0,0007.34,0004.25,0003.90
2023-01-30 06:26:00,,0826.5,5.01,0.00,22.4,20.6,00.0,31.3,23.9,03.7,0000.0,0007.18,0004.23,0003.89
2023-01-30 06:27:00,,0826.5,4.99,0.00,22.4,20.8,00.0,31.3,24.0,03.7,0000.0,0006.91,0004.22,0003.87
2023-01-30 06:28:00,,0826.5,5.02,0.00,22.5,21.8,00.0,31.3,24.2,03.7,0000.0,0006.84,0004.20,0003.86
2023-01-30 06:29:00,,0826.5,4.99,0.00,22.6,22.6,00.0,31.3,24.5,03.7,0000.0,0006.86,0004.20,0003.85
2023-01-30 06:30:00,,0826.5,4.99,0.00,22.7,23.1,00.0,31.3,24.6,03.7,0000.0,0006.85,0004.19,0003.84
2023-01-30 06:31:00,,0826.5,5.00,0.00,22.7,22.6,00.0,31.4,24.5,03.7,0000.0,0006.87,0004.19,0003.83
2023-01-30 06:32:00,,0826.4,5.01,0.00,22.7,22.0,00.0,31.4,24.4,03.7,0000.0,0006.70,0004.17,0003.82
2023-01-30 06:33:00,,0826.3,5.00,0.00,22.6,21.5,00.0,31.4,24.2,03.7,0000.0,0006.68,0004.16,0003.82
2023-01-30 06:34:00,,0826.4,5.00,0.00,22.6,21.2,00.0,31.4,24.1,03.7,0000.0,0006.63,0004.14,0003.80
2023-01-30 06:35:00,,0826.4,5.01,0.00,22.5,20.9,00.0,31.4,24.0,03.7,0000.0,0006.60,0004.12,0003.78
2023-01-30 06:36:00,,0826.4,5.01,0.00,22.4,20.7,00.0,31.4,23.9,03.7,0000.0,0006.53,0004.11,0003.78
2023-01-30 06:37:00,,0826.4,5.01,0.00,22.4,20.8,00.0,31.3,24.0,03.7,0000.0,0006.92,0004.11,0003.78
2023-01-30 06:38:00,,0826.4,5.01,0.00,22.5,21.7,00.0,31.3,24.2,03.7,0000.0,0006.96,0004.12,0003.79
2023-01-30 06:39:00,,0826.3,5.00,0.00,22.6,22.6,00.0,31.3,24.5,03.7,0000.0,0007.00,0004.13,0003.80
2023-01-30 06:40:00,,0826.2,5.00,0.00,22.7,23.1,00.0,31.3,24.7,03.7,0000.0,0006.88,0004.11,0003.79
2023-01-30 06:41:00,,0826.3,4.98,0.00,22.7,22.7,00.0,31.4,24.6,03.7,0000.0,0006.74,0004.07,0003.79
2023-01-30 06:42:00,,0826.4,5.02,0.00,22.7,22.1,00.0,31.4,24.4,03.7,0000.0,0006.70,0004.06,0003.78
2023-01-30 06:43:00,,0826.2,4.99,0.00,22.6,21.6,00.0,31.4,24.3,03.7,0000.0,0006.70,0004.05,0003.77
2023-01-30 06:44:00,,0826.3,5.00,0.00,22.6,21.3,00.0,31.4,24.2,03.7,0000.0,0006.76,0004.05,0003.77
2023-01-30 06:45:00,,0826.2,5.02,0.00,22.5,21.0,00.0,31.4,24.1,03.7,0000.8,0006.77,0004.05,0003.78
2023-01-30 06:46:00,,0826.2,4.99,0.00,22.5,20.7,00.0,31.4,24.0,03.7,0001.7,0006.87,0004.07,0003.79
2023-01-30 06:47:00,,0826.2,5.00,0.00,22.4,20.7,00.0,31.4,24.0,03.7,0002.2,0006.98,0004.08,0003.79
2023-01-30 06:48:00,,0826.2,5.03,0.00,22.5,21.7,00.0,31.3,24.2,03.7,0001.2,0006.62,0004.10,0003.82
2023-01-30 06:49:00,,0826.4,4.99,0.00,22.6,22.6,00.0,31.3,24.5,03.7,0001.3,0006.54,0004.11,0003.83
2023-01-30 06:50:00,,0826.3,4.99,0.00,22.7,22.8,00.0,31.4,24.6,03.7,0001.4,0006.50,0004.11,0003.83
2023-01-30 06:51:00,,0826.2,4.98,0.00,22.7,22.3,00.0,31.4,24.5,03.7,0001.2,0006.54,0004.12,0003.84
2023-01-30 06:52:00,,0826.2,5.00,0.00,22.6,21.8,00.0,31.4,24.3,03.7,0001.3,0006.66,0004.15,0003.85
2023-01-30 06:53:00,,0826.2,5.00,0.00,22.6,21.4,00.0,31.4,24.2,03.7,0000.9,0006.67,0004.17,0003.87
2023-01-30 06:54:00,,0826.1,4.98,0.00,22.5,21.0,00.0,31.4,24.1,03.7,0002.0,0006.70,0004.18,0003.89
2023-01-30 06:55:00,,0826.2,4.99,0.00,22.5,20.8,00.0,31.4,24.0,03.7,0002.2,0006.66,0004.19,0003.90
2023-01-30 06:56:00,,0826.2,5.00,0.00,22.4,20.7,00.0,31.4,24.0,03.7,0001.5,0006.64,0004.20,0003.91
2023-01-30 06:57:00,,0826.2,5.01,0.00,22.5,21.6,00.0,31.3,24.2,03.7,0001.0,0006.60,0004.24,0003.94
2023-01-30 06:58:00,,0826.2,4.99,0.00,22.6,22.5,00.0,31.3,24.5,03.7,0000.7,0006.57,0004.26,0003.96
2023-01-30 06:59:00,,0826.2,4.98,0.00,22.7,23.2,00.0,31.3,24.7,03.7,0001.1,0006.56,0004.26,0003.96
